Wind_Speed
24 23 21 16 16 20 19 22 21 18 18 24 30 33 32 31 36 40 45 46 43 40 40 41 42 43 42 41 40 41 41 41 42 43 44 43 43 44 45 47 47 44 41 39
25 23 22 25 30 30 29 31 29 23 22 30 38 38 34 31 37 41 46 49 48 45 43 43 44 45 45 44 43 44 43 43 44 46 46 46 45 46 48 49 49 46 42 39
27 24 30 34 34 31 29 27 29 30 26 26 36 41 38 35 40 46 48 49 48 46 44 43 45 46 46 47 47 45 45 46 46 46 46 47 48 49 49 49 49 47 45 42
30 31 36 35 31 28 26 23 27 29 31 31 29 31 30 30 36 43 45 46 46 47 47 45 44 46 47 48 48 47 47 47 46 45 46 48 50 51 50 49 48 48 47 45
22 28 33 33 29 30 32 32 34 35 36 38 37 35 32 27 36 41 41 41 43 46 47 45 44 44 46 47 47 47 46 46 45 46 47 48 50 51 50 49 49 48 48 46
12 17 21 23 26 31 35 38 39 40 40 42 39 36 37 31 37 43 43 41 42 41 42 43 42 42 43 44 44 44 44 44 45 46 47 49 51 51 50 49 47 45 44 43
5 7 10 12 15 20 26 31 35 37 39 41 36 36 37 36 44 49 49 46 41 35 34 36 39 40 41 42 43 44 44 45 46 47 49 50 52 53 51 48 46 43 42 42
7 10 13 15 16 18 22 26 31 34 35 33 33 37 41 45 49 52 52 51 53 52 49 46 44 43 43 44 45 46 47 48 49 50 51 51 52 51 48 45 43 42 42 42
17 18 21 22 24 25 28 30 32 37 38 37 36 38 42 43 44 46 48 51 53 53 53 53 52 50 48 48 48 50 51 52 53 51 49 47 46 44 42 41 41 40 39 36
21 22 21 26 26 26 29 29 32 37 40 40 39 34 40 46 44 42 45 52 56 54 53 55 55 55 52 51 50 51 52 52 50 46 44 42 40 37 37 37 37 36 33 30
13 13 13 17 20 23 26 25 28 31 36 37 37 34 37 41 46 46 48 41 39 44 46 45 43 44 45 45 45 45 45 44 42 41 40 38 35 33 34 35 35 34 30 27
9 11 13 14 18 22 25 27 33 37 38 39 40 39 38 38 42 46 49 51 45 38 36 37 37 38 39 40 40 39 38 39 40 39 37 35 34 34 34 35 35 34 31 27
11 13 15 14 18 23 27 32 38 43 44 43 44 43 41 39 37 42 48 51 50 44 39 37 37 37 38 38 38 36 35 36 37 37 36 34 33 34 34 36 36 34 31 28
14 15 18 19 20 23 28 33 39 42 44 43 42 43 41 45 43 38 36 40 42 41 40 38 37 36 36 36 36 35 33 33 33 34 34 34 33 33 34 35 34 33 34 33
16 17 20 23 26 28 30 29 31 35 38 42 44 42 38 38 44 42 33 31 32 33 35 37 36 35 33 33 33 33 31 29 28 30 33 34 34 34 35 36 36 35 36 38
20 20 21 23 27 30 30 28 29 29 31 35 37 37 35 32 35 38 33 29 29 29 30 31 31 31 32 33 32 30 29 28 28 28 29 30 31 31 32 33 34 35 36 38
22 22 23 24 27 30 27 30 28 25 25 27 29 27 24 23 24 23 23 24 26 27 27 27 28 28 30 31 32 31 30 29 29 29 30 31 32 33 34 34 34 35 37 38
21 21 22 23 26 27 29 29 24 20 20 20 20 20 18 17 17 18 20 22 23 24 24 24 25 25 25 26 28 29 30 30 31 33 33 34 35 34 34 34 34 36 37 39
22 21 21 22 23 24 25 26 21 16 16 17 16 15 12 12 13 15 16 17 18 19 19 20 21 22 23 23 25 27 29 30 32 33 33 33 33 33 33 33 34 34 36 37
23 21 21 21 22 22 24 24 20 16 15 15 15 13 12 10 10 11 13 15 16 17 17 18 19 20 21 21 23 24 27 29 30 29 29 28 29 30 30 31 32 33 34 35
27 24 22 21 21 20 22 22 21 18 17 15 13 12 12 11 10 10 11 13 15 16 17 18 19 21 22 23 24 25 27 28 27 26 24 24 25 27 29 30 31 31 32 31
27 25 23 22 21 20 20 20 20 19 17 15 12 10 10 10 10 11 11 13 14 15 15 16 17 19 21 22 23 24 25 25 23 22 22 22 23 25 25 25 25 25 24 24
30 27 25 24 22 22 19 18 17 17 15 14 12 10 9 8 8 8 8 8 8 8 9 9 11 13 15 17 19 21 21 20 20 19 19 18 19 19 19 19 20 20 21 21
29 31 29 25 22 23 21 19 17 15 14 12 10 9 8 7 6 6 6 7 7 7 8 9 10 11 12 12 14 17 18 18 18 17 16 16 16 17 17 18 19 20 22 23
24 29 31 29 24 24 23 21 19 17 15 13 11 9 9 8 7 6 6 7 7 7 8 9 11 12 12 12 11 10 11 14 15 16 17 18 19 20 20 21 22 23 23 23
23 23 27 28 27 26 24 23 21 20 18 17 15 13 12 11 10 9 9 10 9 9 9 9 9 10 11 11 11 10 8 9 13 17 20 21 22 22 22 22 23 24 24 24
Wind_Direction
235 235 233 236 246 243 223 230 231 242 243 236 240 242 239 239 248 253 258 259 258 258 260 262 265 268 269 269 271 272 274 276 275 276 279 283 286 290 295 297 299 299 297 296
240 235 235 227 228 230 230 232 225 215 225 234 234 240 245 239 246 251 255 260 264 264 262 262 263 266 269 270 271 272 274 275 275 276 278 282 286 288 290 291 293 294 293 293
233 230 230 235 237 240 244 249 245 238 235 246 252 254 255 246 243 248 254 260 265 266 262 260 261 264 266 268 270 272 275 276 277 278 280 283 284 284 286 289 291 291 291 291
237 234 237 240 243 244 245 244 244 241 240 243 253 262 261 263 258 256 257 260 263 263 262 259 258 260 263 265 268 271 272 274 277 279 281 283 284 285 286 288 288 287 287 286
248 244 247 248 248 245 240 240 243 243 244 246 246 254 258 258 263 265 265 264 263 261 260 259 257 257 259 261 264 266 268 271 275 278 281 283 284 285 286 287 287 286 285 284
262 262 261 259 251 252 253 252 251 253 255 256 256 257 259 255 262 266 265 265 261 257 257 259 259 258 258 260 262 264 267 269 272 275 279 281 284 286 287 289 288 286 283 279
292 285 280 279 271 264 264 265 263 261 258 261 263 262 262 257 254 258 262 262 261 261 261 263 263 261 259 260 261 262 265 267 271 275 279 282 284 286 288 289 288 285 280 275
295 286 281 277 275 273 270 270 269 269 266 262 256 254 249 249 251 252 257 261 263 266 268 268 267 264 261 261 263 265 267 270 274 278 281 282 282 282 283 285 285 283 280 275
288 280 282 280 274 273 276 275 273 273 272 267 258 255 258 256 254 250 254 259 260 263 267 269 268 264 262 262 263 265 267 270 274 277 278 278 278 277 277 279 279 281 283 282
289 287 281 282 285 282 280 279 280 275 275 274 270 262 257 256 259 261 263 259 253 255 262 267 267 264 263 264 266 268 269 272 274 275 276 276 273 270 270 272 275 280 284 283
296 305 305 293 298 296 290 274 260 267 274 272 269 261 255 255 258 262 261 265 264 259 262 267 268 265 264 265 268 270 271 271 271 272 275 274 270 267 267 269 274 279 282 281
311 325 333 320 308 308 300 287 274 275 270 263 262 258 258 258 260 262 263 265 271 274 274 275 271 268 267 267 269 271 272 271 271 271 272 271 268 266 266 268 271 276 280 282
317 325 329 327 312 309 298 290 281 276 274 268 263 259 258 260 265 267 266 266 270 275 278 277 272 270 268 268 269 270 271 272 271 268 266 265 264 265 265 267 269 271 275 282
312 319 323 324 316 309 301 291 284 282 281 280 278 275 268 261 260 263 270 270 271 271 272 273 272 270 269 267 266 267 270 272 270 266 263 262 262 263 266 268 270 269 270 277
306 314 320 324 324 322 317 305 290 284 281 281 281 280 275 266 255 257 269 271 269 266 265 268 270 268 265 267 267 265 266 266 265 263 260 260 261 263 267 270 272 272 270 273
304 311 316 323 327 327 324 319 307 295 288 284 283 282 279 269 256 254 265 271 269 266 264 265 268 268 267 267 266 263 260 261 264 267 263 260 262 266 269 271 273 274 272 271
299 306 315 324 329 330 330 327 319 309 302 295 290 286 277 266 257 262 269 272 272 270 267 267 269 270 271 265 260 258 258 260 266 270 272 271 271 272 273 274 275 275 276 275
289 298 309 320 329 335 334 337 330 315 310 304 301 295 285 271 268 269 269 269 269 271 270 270 269 270 272 266 260 257 258 262 267 271 273 273 271 271 272 274 275 277 278 278
287 296 305 315 324 334 338 340 336 323 312 314 312 305 291 277 271 267 263 261 261 261 260 260 262 263 265 266 264 262 263 265 268 270 270 270 270 270 271 273 274 276 278 278
291 292 296 305 316 328 336 344 343 332 321 318 312 302 291 282 275 272 267 262 261 260 260 261 261 262 264 266 266 264 263 264 266 268 269 271 272 273 275 276 277 277 277 277
291 293 296 303 310 316 326 339 341 337 337 329 315 298 285 278 278 272 265 263 264 267 271 272 272 273 273 272 270 267 265 265 267 268 270 274 278 280 281 281 281 281 280 279
278 284 287 290 296 297 316 327 334 336 339 337 332 315 296 288 283 277 273 271 274 277 279 280 281 280 278 276 272 268 265 265 266 268 272 277 281 282 281 280 278 278 277 276
267 270 274 277 282 289 297 305 317 329 336 340 343 339 329 316 307 302 299 298 300 301 302 304 304 300 294 286 276 268 265 262 264 268 271 277 282 283 281 278 276 274 273 274
272 267 267 266 267 273 280 286 295 307 320 331 339 345 347 347 345 345 345 347 349 350 350 348 345 341 333 318 296 278 269 265 264 264 268 275 284 288 288 285 283 283 283 282
292 273 269 267 264 265 269 274 281 289 298 305 310 319 326 331 333 330 327 331 335 340 347 350 352 353 353 349 338 313 283 266 260 264 274 282 287 290 290 288 288 287 288 285
307 294 284 276 266 262 264 267 270 275 281 285 288 291 295 300 304 303 300 302 305 307 315 323 332 340 344 347 348 343 323 291 274 271 273 277 281 283 285 287 288 289 290 288
Height
5849 5853 5855 5857 5860 5862 5865 5868 5871 5876 5879 5878 5875 5875 5876 5878 5876 5875 5871 5870 5873 5879 5880 5881 5881 5881 5883 5885 5884 5884 5885 5885 5884 5884 5883 5883 5882 5882 5881 5880 5880 5879 5879 5877
5845 5849 5851 5851 5850 5853 5857 5859 5862 5865 5869 5868 5866 5864 5868 5871 5868 5867 5865 5864 5866 5871 5873 5874 5874 5874 5874 5876 5876 5876 5877 5877 5876 5876 5876 5876 5875 5875 5874 5873 5872 5871 5870 5869
5840 5842 5841 5842 5846 5850 5853 5855 5857 5859 5860 5859 5858 5858 5861 5863 5861 5858 5859 5859 5860 5861 5863 5865 5866 5866 5866 5867 5867 5868 5868 5868 5868 5868 5868 5867 5867 5866 5866 5865 5864 5862 5860 5859
5833 5834 5835 5838 5842 5845 5848 5849 5848 5850 5851 5852 5852 5851 5853 5854 5853 5852 5853 5854 5853 5852 5852 5855 5856 5857 5857 5858 5859 5860 5859 5859 5859 5858 5859 5859 5858 5858 5857 5856 5855 5853 5851 5850
5829 5830 5831 5834 5838 5838 5839 5839 5839 5841 5842 5843 5844 5844 5847 5849 5844 5842 5843 5845 5844 5842 5842 5844 5846 5847 5848 5849 5850 5851 5850 5850 5850 5850 5850 5849 5848 5848 5847 5846 5845 5843 5840 5839
5825 5826 5828 5829 5831 5831 5832 5833 5833 5833 5834 5833 5837 5838 5838 5842 5836 5831 5831 5833 5830 5830 5832 5834 5837 5838 5840 5841 5842 5842 5842 5842 5842 5842 5842 5841 5839 5837 5836 5835 5833 5831 5829 5827
5824 5824 5824 5825 5825 5826 5827 5827 5826 5826 5826 5825 5830 5830 5831 5830 5825 5821 5822 5822 5819 5819 5823 5827 5829 5830 5831 5832 5833 5833 5834 5834 5834 5834 5833 5832 5830 5827 5825 5823 5821 5819 5817 5815
5822 5823 5822 5822 5822 5822 5821 5821 5820 5818 5818 5819 5821 5818 5817 5813 5811 5809 5810 5812 5813 5813 5815 5818 5819 5821 5822 5823 5824 5824 5824 5824 5824 5825 5824 5822 5820 5818 5816 5813 5811 5808 5805 5803
5819 5819 5818 5817 5816 5817 5815 5814 5813 5809 5806 5806 5808 5809 5805 5804 5798 5793 5798 5800 5801 5801 5803 5805 5806 5809 5811 5812 5814 5814 5814 5814 5814 5814 5813 5811 5809 5808 5807 5805 5802 5799 5796 5793
5814 5813 5813 5810 5809 5809 5807 5805 5803 5800 5797 5795 5797 5800 5799 5794 5792 5788 5787 5787 5787 5788 5789 5791 5793 5795 5798 5800 5801 5802 5802 5803 5802 5802 5801 5800 5799 5799 5798 5797 5795 5792 5789 5786
5810 5809 5808 5805 5802 5801 5799 5797 5793 5790 5788 5786 5785 5790 5785 5785 5784 5781 5779 5773 5774 5777 5779 5780 5781 5783 5785 5787 5789 5789 5790 5791 5791 5791 5791 5790 5790 5790 5790 5789 5787 5785 5783 5781
5808 5806 5804 5801 5798 5794 5792 5789 5786 5782 5778 5775 5773 5777 5774 5775 5774 5772 5770 5768 5768 5770 5771 5772 5773 5774 5775 5776 5777 5778 5780 5781 5781 5782 5782 5782 5781 5782 5781 5781 5780 5779 5777 5776
5805 5803 5801 5798 5796 5790 5786 5782 5777 5771 5767 5763 5761 5763 5764 5764 5763 5760 5757 5757 5758 5761 5763 5764 5765 5765 5766 5766 5768 5769 5770 5770 5771 5772 5772 5773 5773 5773 5773 5773 5772 5772 5771 5770
5802 5799 5797 5794 5790 5785 5779 5774 5767 5761 5756 5751 5749 5748 5750 5750 5751 5747 5743 5744 5747 5751 5754 5756 5757 5757 5757 5758 5759 5760 5761 5762 5763 5763 5763 5764 5764 5764 5765 5765 5764 5764 5763 5763
5798 5795 5791 5787 5782 5777 5771 5764 5759 5753 5747 5741 5738 5736 5736 5738 5739 5738 5735 5735 5738 5741 5745 5748 5749 5750 5750 5750 5751 5752 5753 5754 5755 5755 5756 5756 5756 5757 5757 5757 5757 5756 5756 5755
5792 5790 5786 5782 5776 5769 5762 5756 5749 5744 5739 5733 5729 5726 5725 5727 5729 5730 5729 5730 5732 5734 5737 5739 5741 5741 5742 5742 5743 5744 5745 5746 5747 5748 5748 5748 5748 5749 5749 5749 5749 5748 5748 5747
5787 5784 5780 5776 5770 5764 5756 5750 5743 5737 5732 5727 5722 5719 5717 5718 5720 5722 5724 5725 5726 5728 5729 5731 5733 5733 5734 5734 5735 5736 5738 5739 5740 5740 5741 5741 5741 5741 5740 5741 5740 5739 5739 5738
5782 5778 5775 5771 5766 5759 5755 5745 5739 5733 5728 5723 5719 5715 5713 5713 5715 5717 5718 5720 5720 5722 5723 5725 5726 5726 5727 5727 5728 5729 5731 5731 5732 5732 5732 5733 5733 5732 5732 5731 5731 5730 5730 5729
5775 5773 5769 5766 5762 5757 5751 5743 5736 5731 5727 5722 5718 5715 5713 5712 5713 5714 5714 5715 5715 5716 5717 5719 5719 5720 5720 5721 5721 5722 5723 5724 5724 5724 5724 5724 5724 5724 5724 5723 5722 5722 5721 5720
5768 5767 5765 5761 5757 5753 5749 5742 5735 5731 5726 5722 5718 5715 5714 5713 5713 5713 5712 5712 5712 5712 5713 5714 5714 5714 5714 5714 5714 5714 5715 5716 5716 5716 5716 5717 5716 5716 5715 5715 5714 5713 5712 5712
5762 5760 5758 5756 5753 5749 5745 5740 5735 5731 5728 5722 5718 5716 5714 5713 5712 5712 5710 5710 5710 5710 5709 5709 5709 5709 5709 5708 5708 5708 5708 5709 5709 5709 5710 5710 5709 5708 5707 5706 5705 5704 5704 5703
5756 5754 5753 5750 5748 5747 5741 5738 5735 5731 5726 5721 5718 5716 5714 5712 5711 5710 5710 5708 5707 5706 5705 5704 5704 5703 5702 5702 5701 5701 5701 5702 5703 5703 5704 5703 5703 5702 5700 5699 5698 5698 5697 5697
5747 5747 5745 5745 5744 5740 5737 5735 5732 5729 5725 5721 5718 5715 5712 5711 5709 5708 5707 5705 5704 5703 5702 5700 5699 5698 5697 5696 5695 5695 5695 5696 5697 5698 5698 5698 5697 5696 5695 5694 5693 5693 5693 5692
5738 5737 5735 5735 5736 5734 5732 5730 5728 5726 5723 5720 5717 5714 5712 5710 5708 5707 5705 5704 5702 5701 5699 5698 5697 5695 5693 5691 5690 5690 5691 5692 5693 5693 5694 5693 5692 5691 5690 5690 5689 5688 5688 5687
5730 5727 5726 5726 5727 5726 5725 5724 5723 5721 5719 5717 5715 5713 5711 5710 5708 5706 5705 5703 5702 5700 5698 5697 5695 5694 5692 5690 5688 5687 5687 5688 5689 5689 5689 5689 5688 5687 5687 5686 5685 5684 5682 5681
5724 5721 5719 5718 5718 5717 5718 5717 5716 5715 5714 5713 5711 5710 5708 5707 5706 5705 5704 5702 5701 5699 5698 5696 5694 5692 5691 5689 5687 5685 5684 5684 5684 5684 5684 5684 5684 5683 5682 5681 5680 5678 5677 5675